sat.trackr.live / text

‹ back to catalog

STARLINK-36735

NORAD 68976 · 2026-099AB

PAYLOAD ACTIVE UNKNOWN

§ Identity

Operator
Country
US
Launch date
2026-05-01
Launch site
AFETR
Launch vehicle
Mass (kg)
RCS (m²)

Purposes: comms

External: N2YO · Heavens-Above · Gunter

§ Orbital elements

Epoch: 2026-09-20T00:18:35.070624Z

Period
93.85 min
Inclination
53.1590°
Eccentricity
0.0001150
Mean motion
15.34403179 rev/d
Perigee alt
461.9 km
Apogee alt
463.5 km
Semi-major
6,840.8 km
B*
4.0998e-4
RAAN
77.7704°
Arg perigee
100.8267°
Mean anomaly
259.2865°
Rev number
2,183

§ Raw data

STARLINK-367351 68976U 26099AB  26263.01290591  .00013502  00000+0  40998-3 0  99912 68976  53.1590  77.7704 0001150 100.8267 259.2865 15.34403179 21832

JSON: /api/v1/satellites/68976 · /tle

For live sub-satellite position, see the globe view (requires WebGL).

§ Visibility from observer

Set your observer location to see the next 7 days of passes ≥ 10°. The values pass through the URL so the page stays shareable.

No JS? Fill the form by hand. The geolocation button needs JavaScript.